Flag for Italy Weather past 2 weeks in Bologna, Italy

Now
46 °F

Rain. Fog.


Feels Like: 45 °F
Forecast: 36 / 48 °F
Wind: 3 mph from Northwest

Location: Bologna / Borgo Panigale

Current Time: Mar 4, 2015 at 9:41:43 PM

Latest Report: Mar 4, 2015 at 8:50 PM


Visibility: 2 mi

Pressure: 30.04 "Hg

Humidity: 93%

Dew point: 45 °F

Location of BolognaLocation

Historic Weather in Bologna — Graph

°F

Bologna temperature yesterday

Maximum temperature yesterday: 54 °F (at 11:20 AM)
Minimum temperature yesterday: 36 °F (at 5:20 AM)
Average temperature yesterday: 45 °F

Past Weeks' High & Low Weather Summary

 TemperatureHumidityPressure
High57 °F (Feb 21, 11:50 AM)100% (Feb 22, 7:20 AM)30.63 "Hg (Feb 22, 7:20 AM)
Low32 °F (Feb 18, 6:20 AM)35% (Feb 19, 4:20 PM)29.47 "Hg (Feb 22, 3:20 AM)
Average45 °F78%30.00 "Hg
* Reported Feb 17 8:20 PM — Mar 4 8:20 PM, Bologna, Weather by CustomWeather, © 2015

Note: Actual official high and low records may vary slightly from our data, if they occured in-between our weather recording intervals... More about our weather records

Advertising

Bologna weather history for previous 24 hours

 ConditionsComfort  
Time TempWeatherWind HumidityBarometerVisibility
8:20 PM
Wed, Mar 4
46 °FRain. Fog.5 mph93%30.04 "Hg2 mi
7:50 PM48 °FRain. Fog.6 mph87%30.04 "Hg1 mi
7:20 PM48 °FLight rain. Fog.5 mph94%30.04 "Hg1 mi
6:50 PM48 °FLight rain. Fog.6 mph94%30.04 "Hg1 mi
6:20 PM48 °FLight rain. Fog.7 mph94%30.04 "Hg1 mi
5:50 PM48 °FLight rain. Fog.6 mph94%30.04 "Hg1 mi
5:20 PM48 °FLight rain. Fog.6 mph94%30.04 "Hg1 mi
4:50 PM48 °FLight rain. Fog.5 mph94%30.04 "Hg1 mi
4:20 PM48 °FLight rain. Fog.6 mph94%30.04 "Hg1 mi
3:50 PM50 °FLight rain. Fog.7 mph88%30.07 "Hg1 mi
3:20 PM50 °FLight rain. Fog.5 mph82%30.07 "Hg2 mi
2:50 PM52 °FPartly sunny.3 mph72%30.07 "Hg4 mi
2:20 PM52 °FPartly sunny.2 mph72%30.07 "Hg4 mi
1:50 PM52 °FPartly sunny.6 mph77%30.09 "Hg4 mi
1:20 PM52 °FPartly sunny.3 mph77%30.09 "Hg4 mi
12:50 PM52 °FPartly sunny.5 mph77%30.12 "Hg4 mi
12:20 PM52 °FPartly sunny.6 mph77%30.12 "Hg4 mi
11:50 AM52 °FFog.7 mph77%30.12 "Hg3 mi
11:20 AM52 °FFog.7 mph77%30.15 "Hg3 mi
10:50 AM50 °FFog.5 mph76%30.15 "Hg3 mi
10:20 AM50 °FFog.6 mph82%30.15 "Hg3 mi
9:50 AM50 °FFog.7 mph82%30.15 "Hg2 mi
9:20 AM48 °FFog.9 mph82%30.18 "Hg2 mi
8:50 AM48 °FFog.6 mph82%30.15 "Hg2 mi
8:20 AM46 °FFog.6 mph87%30.18 "Hg1 mi
7:50 AM46 °FFog.5 mph87%30.18 "Hg1 mi
7:20 AM45 °FFog.3 mph93%30.18 "Hg1 mi
6:50 AM45 °FFog.1 mph87%30.15 "Hg1 mi
6:20 AM45 °FFog.2 mph93%30.15 "Hg1 mi
5:50 AM45 °FFog.3 mph87%30.18 "Hg1 mi
5:20 AM45 °FFog.3 mph93%30.18 "Hg1 mi
4:50 AM45 °FFog.2 mph93%30.15 "Hg1 mi
4:20 AM45 °FFog.1 mph93%30.18 "Hg1 mi
3:50 AM45 °FFog.3 mph93%30.18 "Hg1 mi
3:20 AM43 °FFog.1 mph93%30.15 "Hg1 mi
2:50 AM45 °FFog.2 mph87%30.18 "Hg1 mi
2:20 AM43 °FFog.3 mph93%30.18 "Hg1 mi
1:50 AM43 °FFog.1 mph93%30.18 "Hg1 mi
1:20 AM45 °FFog.2 mph87%30.21 "Hg1 mi
12:50 AM45 °FFog.2 mph87%30.18 "Hg1 mi
12:20 AM45 °FFog.3 mph87%30.21 "Hg1 mi
11:50 PM
Tue, Mar 3
43 °FFog.3 mph93%30.21 "Hg1 mi
11:20 PM43 °FFog.2 mph93%30.21 "Hg1 mi
10:50 PM43 °FFog.1 mph93%30.21 "Hg1 mi
10:20 PM43 °FFog.2 mph100%30.21 "Hg1 mi
9:50 PM45 °FFog.2 mph93%30.21 "Hg1 mi
9:20 PM45 °FFog.3 mph93%30.21 "Hg2 mi
Weather by CustomWeather, © 2015

See weather overviewHow to use our weather pages